GFSNGP_700_spd_132.txt.gz
Wind_Speed
16 8 8 6 11 10 7 13 18 9 11 13 13 12 9 4 7 3 4 15 35 23 21 33 26 29 34 33 30 20 20 16 14 14 13 12 12 12 13 14 14 14 16 17
15 15 15 14 14 12 15 8 11 12 9 11 6 14 13 6 5 8 9 8 5 10 19 23 35 37 37 34 32 31 24 22 21 19 17 16 16 18 18 18 17 20 21 22
17 12 9 11 10 11 11 16 13 11 13 10 9 6 14 8 9 11 12 13 14 10 6 7 25 39 42 39 39 33 27 25 26 27 25 24 21 23 25 25 25 24 25 27
16 16 13 11 12 12 10 6 9 11 9 8 10 12 19 14 10 9 10 15 15 13 12 6 6 10 39 41 37 34 32 26 25 27 30 31 28 29 29 29 31 31 32 33
16 18 17 17 3 2 6 5 10 12 9 7 12 12 19 20 11 14 14 12 11 10 11 5 6 5 6 32 33 27 26 22 24 19 26 30 33 33 34 35 35 36 35 34
13 14 14 11 1 4 7 11 5 6 12 10 13 20 19 10 9 13 14 12 8 6 6 8 4 7 5 2 8 17 17 24 19 29 24 25 25 29 31 32 32 34 34 30
14 15 15 2 2 4 8 4 12 16 11 18 10 11 7 9 7 10 12 13 9 5 6 7 9 12 14 13 12 14 13 10 13 12 16 16 16 17 18 23 24 23 21 25
13 16 16 3 5 6 6 9 11 19 17 24 21 5 3 3 1 1 3 6 5 4 4 4 7 8 9 13 13 13 13 11 11 9 10 13 13 12 11 13 10 9 11 17
14 14 13 19 13 9 9 14 14 10 18 14 17 22 12 17 12 9 7 5 4 3 3 5 6 6 7 7 6 7 9 14 15 16 15 16 14 12 12 11 11 11 14 16
17 18 16 14 17 16 12 16 12 8 10 14 18 17 8 12 13 7 8 8 11 5 2 7 7 7 6 6 7 10 12 14 14 15 13 13 14 13 14 15 13 12 13 6
15 17 20 18 19 19 18 16 11 7 13 16 14 15 14 12 13 12 10 11 11 16 6 9 11 11 10 11 12 14 16 17 17 18 17 17 17 16 17 17 17 16 16 13
20 19 17 16 15 17 16 13 10 8 12 17 17 18 15 11 11 12 11 11 11 15 17 12 12 9 9 11 13 14 16 18 17 17 18 18 17 18 16 15 15 14 13 12
23 24 22 19 22 21 36 16 8 14 19 20 16 17 14 11 12 13 12 12 12 13 13 16 17 8 8 9 10 10 11 13 15 17 17 17 15 15 13 14 15 14 10 11
20 16 18 17 18 17 4 10 18 13 15 11 12 14 13 11 12 11 11 11 11 12 12 11 9 8 10 12 12 11 11 11 11 11 10 10 11 12 13 9 11 10 11 11
16 18 15 20 20 20 22 13 13 13 12 10 10 12 12 11 11 10 9 8 9 9 8 7 8 10 9 10 10 10 10 9 9 8 6 7 8 9 11 11 11 14 14 13
16 13 16 21 25 33 35 12 13 11 10 8 6 9 9 9 9 8 7 7 7 7 6 6 7 8 9 10 9 9 9 9 8 8 8 10 10 10 10 10 10 9 8 6
15 13 15 16 18 15 13 12 12 11 12 10 10 12 10 11 10 10 9 10 8 8 8 8 7 7 6 5 5 5 4 3 3 5 6 6 6 6 7 7 8 10 5 8
15 9 15 12 15 19 19 15 12 15 16 13 12 10 10 11 10 10 11 10 10 10 9 8 7 7 7 7 7 7 7 8 8 8 9 8 9 9 8 9 9 9 10 9
14 12 10 8 13 16 10 7 12 15 18 9 9 10 9 9 11 13 12 12 11 9 7 6 6 7 8 9 9 8 5 7 13 12 10 12 12 11 7 9 7 10 10 15
15 13 11 9 12 10 10 13 11 15 14 9 7 9 8 8 11 13 13 11 8 4 6 4 6 5 6 6 5 5 13 13 11 12 16 14 11 7 9 9 11 14 16 15
15 14 13 13 15 15 13 14 16 19 18 13 9 8 9 10 10 10 11 11 9 9 12 7 6 5 5 7 6 10 12 14 11 16 18 20 14 12 14 10 14 16 20 14
13 14 13 14 15 16 15 17 15 19 16 13 11 11 10 10 10 11 11 9 6 12 10 12 11 8 9 7 7 4 6 5 13 18 21 22 23 22 19 19 21 23 22 17
13 13 14 16 18 18 19 18 15 17 15 12 12 12 11 9 10 10 12 10 17 19 16 10 14 10 7 5 4 5 7 13 17 16 17 21 14 16 18 21 21 21 24 26
15 15 15 19 17 18 21 19 16 16 14 14 14 14 16 14 11 15 13 14 18 15 13 18 14 14 14 12 11 12 13 14 16 20 28 26 23 15 9 15 17 20 18 16
13 13 13 18 21 21 23 24 24 20 20 21 19 18 17 15 18 15 14 18 20 13 16 15 13 15 17 16 18 20 21 18 17 16 17 21 25 26 29 23 21 28 25 19
10 10 12 13 17 16 16 17 17 21 22 20 20 18 15 16 17 16 22 22 21 15 18 13 14 15 16 19 20 24 23 26 22 19 15 16 18 19 20 25 26 23 20 18
13 11 11 12 14 18 17 18 17 17 18 21 17 17 18 20 17 17 17 22 22 16 19 16 14 17 21 23 27 33 29 29 23 18 16 19 19 16 19 19 18 19 17 15

GFSNGP_700_spd_135.txt.gz
Wind_Speed
8 17 11 10 5 15 13 7 6 11 18 7 6 8 11 12 10 3 6 16 31 49 47 37 36 40 37 35 27 25 17 16 15 12 10 9 9 9 8 7 6 5 6 8
16 13 13 16 18 13 14 16 10 6 7 9 14 16 5 8 10 8 4 4 15 20 40 37 30 32 34 32 31 32 23 25 22 17 13 10 8 9 9 9 10 11 11 12
12 14 14 7 3 5 7 12 16 5 3 4 6 11 6 7 7 12 13 10 5 6 17 44 34 31 18 20 27 30 21 31 22 20 13 12 13 13 14 16 17 17 18 19
15 14 7 11 10 9 5 5 2 4 5 5 7 8 12 10 10 7 10 13 13 5 7 3 3 3 23 30 29 31 30 20 24 21 18 19 18 20 21 23 22 23 24 24
14 14 15 18 8 9 4 13 11 5 7 4 3 6 14 14 12 10 8 9 15 12 8 10 10 8 8 28 39 36 34 35 28 22 22 21 19 20 24 28 27 27 28 28
10 9 4 2 5 3 3 5 10 10 6 7 7 13 13 12 6 6 7 6 7 11 13 13 14 10 5 6 23 30 35 33 29 28 25 17 19 20 22 22 24 26 28 27
11 10 8 3 3 1 3 0 9 11 11 12 13 12 16 16 4 5 5 8 9 9 12 14 15 18 8 5 1 9 11 9 5 3 20 25 19 21 18 16 16 17 20 22
11 14 9 4 8 4 8 6 8 15 16 18 19 17 11 8 16 7 4 3 5 8 7 8 7 8 8 8 7 7 8 8 6 6 5 9 11 11 9 9 9 8 8 8
15 8 12 11 9 7 12 13 9 16 23 24 17 13 17 9 9 9 5 3 1 5 6 6 7 6 5 5 8 10 12 11 12 11 9 11 13 12 11 10 6 5 5 8
14 16 18 15 11 10 14 18 14 14 19 18 15 19 13 12 12 6 8 10 8 7 6 6 6 8 9 9 9 9 9 10 9 9 12 12 11 13 13 11 10 9 9 7
13 10 12 17 15 14 15 16 17 17 17 22 20 19 10 8 10 9 8 9 8 9 12 8 9 10 11 11 12 11 11 12 14 15 16 15 14 14 14 15 14 13 12 13
12 14 14 11 15 18 21 22 24 27 22 20 15 19 14 11 12 11 9 11 12 12 11 17 14 8 11 16 17 17 17 16 18 18 19 18 16 14 14 13 12 11 12 11
15 17 24 29 23 17 21 23 25 28 34 28 15 12 20 11 14 14 13 13 13 13 13 12 12 13 13 14 17 17 17 17 16 15 15 14 15 14 12 10 9 10 10 10
24 27 28 22 18 19 23 22 26 25 30 5 19 19 12 11 11 11 11 10 12 13 13 14 13 12 12 14 17 15 12 12 13 11 10 10 11 9 8 9 8 7 8 10
15 13 16 20 19 23 26 25 22 7 14 14 11 8 11 10 9 9 9 9 10 11 12 13 14 13 13 15 16 12 9 10 10 9 9 10 10 9 8 9 10 10 12 14
26 11 16 17 22 21 23 25 27 10 11 18 11 4 3 6 9 8 9 9 9 10 11 11 11 13 13 12 11 8 8 7 7 7 8 9 10 12 11 11 8 6 6 7
22 13 15 17 15 24 23 21 17 14 16 12 6 5 6 6 7 9 10 11 10 10 10 11 10 11 11 9 8 8 7 7 8 9 9 8 8 7 6 7 6 4 6 6
20 12 12 15 20 20 21 21 22 19 16 12 11 10 11 8 10 11 12 12 10 10 10 9 9 9 10 10 9 9 8 6 5 6 5 7 7 7 8 9 9 9 9 9
14 14 15 16 17 14 16 26 19 14 17 16 17 13 10 8 10 11 12 11 11 9 8 10 10 9 9 9 8 9 12 10 3 6 8 6 8 10 11 10 9 10 10 10
12 12 15 14 13 7 4 15 14 10 14 10 12 13 10 9 11 13 12 11 10 11 12 12 9 9 9 9 11 11 10 9 7 7 14 15 12 7 6 8 6 9 12 14
16 17 16 16 12 10 6 5 10 18 15 9 7 10 10 9 8 10 12 11 12 14 10 8 10 9 9 8 10 12 12 13 13 10 12 16 17 20 21 13 12 15 14 18
16 20 18 17 15 13 10 10 11 10 11 11 8 12 9 8 8 9 9 9 12 12 7 7 8 8 4 3 3 5 11 17 14 13 15 14 16 20 22 17 17 20 23 24
12 14 16 15 16 13 12 14 14 13 12 10 9 9 8 9 11 12 5 4 8 10 8 11 9 8 8 6 4 4 7 6 7 13 18 18 17 19 19 19 24 24 23 27
13 14 12 13 16 19 19 19 19 14 6 2 2 5 8 8 7 7 7 9 5 7 7 8 12 14 11 11 10 9 9 10 12 15 18 22 26 25 23 19 19 17 21 18
17 17 17 15 21 21 20 21 19 16 12 11 11 11 10 8 8 8 5 10 10 11 13 12 12 14 16 17 18 15 14 13 16 16 18 22 25 31 32 28 26 26 25 23
15 17 17 15 20 23 22 23 25 23 22 19 16 15 11 10 9 9 15 19 20 19 16 13 13 14 15 16 17 15 14 17 18 19 22 18 20 21 23 25 28 27 27 29
14 16 15 14 15 21 20 17 16 16 21 29 24 16 9 9 11 9 10 20 22 20 17 15 15 15 16 18 19 15 14 19 21 20 16 15 17 19 17 18 21 26 28 25

GFSNGP_700_spd_141.txt.gz
Wind_Speed
6 5 3 5 5 9 14 14 10 9 7 6 9 7 8 9 4 7 11 10 13 10 27 34 33 44 41 36 36 36 36 29 22 17 19 22 24 25 26 24 22 21 22 22
4 4 4 5 5 10 15 20 17 16 11 7 5 3 3 4 5 7 12 10 12 12 12 19 33 30 36 41 42 44 43 35 29 23 21 21 24 26 27 25 24 26 26 24
7 11 14 12 10 11 11 17 14 17 10 7 5 2 2 4 7 13 14 15 14 8 1 8 26 31 34 37 41 44 44 47 38 30 26 22 23 27 28 28 27 26 25 24
4 3 3 13 14 11 8 10 11 10 7 8 6 3 6 10 10 13 18 15 9 8 3 2 7 19 30 34 38 50 44 43 44 40 35 30 27 27 27 28 28 28 27 24
5 7 7 10 6 5 14 14 14 11 8 9 7 3 8 15 19 16 13 12 11 13 13 10 9 8 8 21 22 34 32 38 48 36 34 34 31 32 32 31 30 28 26 25
8 4 4 4 5 7 5 12 11 10 9 9 6 3 10 18 20 14 15 11 11 15 18 14 9 3 4 5 5 10 15 29 42 40 41 46 38 37 35 34 32 30 29 26
14 10 7 10 8 4 4 6 9 6 4 6 7 10 15 20 19 14 9 11 11 11 16 18 15 12 12 12 11 7 7 8 24 33 41 44 44 46 42 34 36 33 25 23
13 8 6 9 12 10 11 10 7 8 8 9 13 16 18 17 17 15 15 12 13 14 14 13 14 14 15 16 16 9 6 4 6 33 36 33 38 42 28 30 19 20 20 17
13 11 6 6 7 9 9 7 5 7 9 12 13 11 15 13 12 15 18 13 10 12 16 16 16 13 12 11 16 15 7 4 11 6 14 9 11 7 26 15 18 12 11 9
13 11 10 8 7 8 8 10 14 15 14 17 17 20 13 18 20 16 14 13 12 10 13 15 14 14 12 10 10 14 11 9 6 12 7 7 7 8 8 9 12 14 14 15
15 15 13 10 9 9 10 13 13 14 16 18 20 20 20 21 20 16 17 17 15 16 14 12 13 12 12 12 12 11 10 9 7 8 7 10 11 11 14 15 16 15 15 14
13 10 9 10 12 11 11 13 16 19 22 22 23 21 21 21 20 20 21 17 15 14 14 16 13 12 12 12 12 12 12 13 12 11 11 12 12 13 13 14 15 15 15 15
9 9 10 13 16 19 23 26 28 23 17 19 19 23 27 24 21 21 17 16 16 13 13 15 15 14 11 13 14 14 13 13 12 12 13 15 15 14 14 14 15 15 14 14
15 19 17 18 21 23 19 15 13 14 16 18 23 24 30 23 29 24 19 14 17 15 14 14 15 15 16 17 17 13 12 10 10 11 11 11 11 10 11 13 13 13 14 14
18 21 16 13 18 20 14 15 14 14 17 20 23 28 12 17 11 16 20 16 15 14 16 17 16 15 14 15 13 13 13 11 9 9 9 9 9 9 10 11 12 12 11 11
16 14 12 15 18 16 14 14 14 16 17 23 16 9 10 14 15 14 15 13 14 15 16 15 15 14 13 14 14 13 12 12 10 8 9 9 10 10 11 11 11 11 11 12
20 17 15 15 18 21 16 17 14 16 19 8 5 5 8 11 9 12 14 16 18 17 18 16 15 13 13 12 12 13 13 11 10 9 8 9 9 8 9 10 10 9 9 8
18 19 19 18 20 21 19 13 15 18 7 12 10 8 10 10 11 13 14 16 18 18 17 15 13 11 10 10 11 11 10 11 13 11 10 9 8 7 7 6 7 8 8 9
21 20 20 20 20 19 16 15 12 8 14 11 11 11 13 13 12 14 16 17 16 14 14 14 13 11 11 11 11 10 10 13 14 12 10 8 5 5 7 6 7 7 9 9
17 20 21 21 20 15 13 11 8 7 11 13 12 15 15 13 12 11 11 13 12 14 16 14 13 12 12 11 10 10 10 11 12 10 9 7 4 1 0 0 2 5 8 8
14 14 16 19 12 11 10 7 4 6 12 12 13 15 9 9 11 13 12 13 14 15 14 14 13 12 13 13 14 14 13 14 13 12 9 4 6 4 3 2 4 6 8 9
11 12 10 10 8 8 10 7 6 11 9 14 15 9 5 6 10 9 12 15 16 15 13 12 12 13 12 12 12 12 14 15 15 13 8 6 8 8 6 6 7 7 10 11
14 8 9 10 10 10 13 10 7 9 13 10 7 6 4 5 5 4 5 11 12 12 12 12 12 13 16 13 11 10 9 8 10 7 6 6 7 9 10 10 11 14 13 12
15 10 11 10 12 11 12 9 8 5 6 5 5 3 3 5 6 8 10 12 12 11 11 12 14 13 14 13 11 9 7 8 8 10 10 11 11 14 15 15 15 15 18 18
14 10 9 9 10 10 10 10 10 9 7 5 4 4 4 3 5 6 8 11 11 11 11 9 10 13 13 17 16 13 13 12 11 12 13 12 11 11 13 16 20 22 24 21
20 16 15 14 13 10 9 13 14 12 11 10 8 9 10 9 6 7 9 12 13 11 8 13 14 12 11 13 16 16 16 17 16 15 15 16 18 19 20 22 21 19 20 21
24 20 17 17 17 15 13 12 15 17 15 13 12 12 12 13 11 12 11 12 16 16 16 15 13 14 14 15 15 15 16 17 16 16 17 18 18 19 23 23 22 20 18 18

GFSNGP_700_spd_147.txt.gz
Wind_Speed
13 13 12 12 12 12 15 13 10 7 10 5 8 9 11 12 11 9 8 5 10 6 3 5 18 31 38 35 35 35 33 31 28 25 21 20 18 20 23 26 28 28 27 24
15 14 12 11 11 10 12 15 16 17 16 9 8 6 4 3 2 3 6 7 10 14 17 10 10 23 30 34 35 38 38 34 33 33 30 27 25 23 25 27 29 30 30 29
10 15 13 12 17 18 18 14 15 19 14 10 7 6 4 3 1 4 9 10 12 13 10 4 4 9 21 29 38 42 41 39 35 36 37 31 30 29 28 26 29 31 31 30
12 15 10 14 16 18 22 21 15 15 12 10 8 9 7 3 4 10 13 13 12 11 9 10 4 0 10 20 32 40 41 41 40 38 39 37 37 35 34 31 29 30 33 32
12 17 13 11 15 14 15 18 18 15 14 11 10 10 8 9 10 13 16 15 15 11 10 14 12 5 6 8 11 35 35 40 40 38 39 42 42 41 41 37 33 32 33 35
17 10 9 12 9 9 11 15 20 18 15 12 10 9 11 13 15 17 19 19 16 13 11 12 17 12 6 2 2 10 24 25 21 24 32 37 44 46 42 43 42 39 35 35
20 12 11 14 8 8 9 6 14 13 12 10 9 12 13 15 17 19 21 17 15 14 13 12 15 19 16 11 6 3 5 12 10 17 26 34 45 40 40 46 44 42 40 35
23 16 14 14 16 16 12 7 8 10 7 8 11 13 14 16 19 17 16 14 14 13 13 12 12 14 18 18 15 13 11 13 15 17 12 16 27 36 36 41 43 42 49 41
18 22 15 10 11 11 14 15 13 11 10 11 11 12 13 14 11 12 12 13 13 11 12 11 11 12 12 13 16 15 15 16 16 17 18 11 12 14 19 25 30 41 45 43
18 19 16 13 14 17 13 11 10 11 10 9 8 11 12 12 13 14 16 16 13 12 12 12 10 11 12 12 13 15 16 10 4 8 12 10 5 5 5 8 7 14 16 23
27 20 17 16 17 16 13 13 11 8 9 10 11 11 13 14 14 16 18 20 16 13 13 14 13 9 9 10 11 11 11 16 9 4 6 14 15 7 6 9 9 12 12 11
22 21 19 15 15 13 16 14 12 11 12 14 17 17 17 17 18 19 20 20 15 16 13 12 13 11 6 8 8 9 8 18 11 8 11 7 5 7 6 5 5 6 11 10
21 15 17 15 15 19 18 16 15 16 16 19 24 24 20 20 19 19 21 21 23 18 13 11 11 10 8 5 7 7 8 12 16 11 13 13 11 11 10 8 9 8 7 8
17 17 18 13 11 13 14 15 17 17 18 18 17 17 19 18 20 22 25 27 25 20 15 11 10 10 8 8 10 6 6 8 12 15 16 15 13 12 11 10 11 11 13 15
22 18 16 14 11 11 13 15 15 15 14 14 15 15 16 18 22 24 18 16 16 12 14 13 12 10 8 8 10 10 9 9 11 12 13 11 9 7 8 10 11 12 12 13
18 14 10 11 14 15 13 13 12 10 13 13 15 17 18 21 14 11 10 8 7 13 11 11 11 10 9 9 9 8 9 9 9 11 12 10 11 12 9 10 11 11 12 11
25 21 15 12 12 12 12 11 12 13 12 14 16 17 16 9 7 7 6 6 6 6 7 9 9 8 9 9 9 10 10 11 10 10 10 11 11 10 9 11 12 10 10 10
24 25 19 20 15 15 14 13 14 14 11 16 17 15 9 6 6 4 4 5 8 10 9 8 8 8 8 7 8 8 9 9 9 10 11 12 12 11 10 11 11 11 10 10
22 23 19 17 18 17 15 14 15 16 16 15 13 12 11 8 7 7 7 9 10 8 7 8 9 8 8 9 10 10 9 8 8 8 8 8 9 9 11 12 11 10 10 9
26 26 23 22 22 17 15 17 16 18 16 12 11 11 11 11 10 10 9 8 11 12 9 8 8 8 9 9 9 10 11 10 10 8 7 7 8 9 10 11 11 11 10 10
22 22 24 24 21 18 18 19 18 18 14 13 14 13 12 9 7 8 6 8 10 8 8 9 10 11 10 11 11 11 11 12 11 10 9 8 7 7 6 7 8 8 8 10
14 17 20 21 20 18 19 19 16 13 13 13 18 18 14 11 8 6 8 11 10 9 8 8 9 9 10 11 11 12 13 14 14 13 11 10 11 10 8 7 8 7 9 8
13 10 10 9 13 18 18 14 10 9 10 11 15 15 13 11 9 6 8 10 8 7 9 10 11 12 12 13 14 14 15 15 15 15 14 12 14 13 11 10 7 7 7 7
7 5 5 3 3 13 12 10 8 6 8 12 13 14 13 11 8 8 9 9 8 10 10 12 13 14 14 15 15 14 15 16 16 17 17 17 18 18 16 13 11 10 12 13
10 9 7 6 6 12 14 12 9 6 5 7 11 12 10 10 10 10 10 9 9 9 11 12 13 14 14 15 16 16 14 14 14 14 15 16 18 19 18 16 15 13 12 12
12 16 14 12 12 14 16 13 10 10 9 7 4 4 5 6 7 7 6 7 9 10 12 14 16 17 17 16 15 17 17 17 17 17 16 16 18 19 19 18 17 15 17 18
12 17 17 18 15 12 14 12 10 9 12 10 9 9 7 6 6 8 7 7 7 9 11 10 12 13 14 15 16 15 18 20 20 20 20 21 20 19 20 22 21 21 21 21

GFSNGP_700_spd_150.txt.gz
Wind_Speed
17 12 10 13 13 15 18 16 12 4 7 6 6 5 8 6 8 8 6 6 5 8 8 6 9 31 35 34 34 36 32 30 27 25 22 22 21 20 20 22 24 24 25 24
18 13 13 14 14 15 17 17 16 16 14 11 12 10 7 6 4 2 5 8 9 10 11 11 11 19 34 38 38 37 37 36 34 31 30 28 27 25 23 22 21 23 25 27
20 15 13 17 18 16 16 17 18 19 16 15 12 10 9 6 4 1 3 7 10 11 13 12 8 10 24 33 37 41 41 42 41 38 35 33 31 29 27 27 24 24 24 25
21 11 15 18 9 13 17 19 17 18 14 16 12 13 11 9 6 2 7 9 11 13 11 10 11 8 7 14 22 38 41 44 45 43 40 38 37 36 33 32 30 28 26 26
21 20 17 11 13 15 15 19 17 20 17 14 13 13 14 11 8 7 11 13 14 14 13 11 12 13 8 10 11 19 30 35 41 43 43 42 41 40 38 38 36 34 33 31
17 22 18 18 10 10 10 21 17 19 19 15 14 14 14 10 10 12 14 17 19 17 14 11 12 16 16 10 9 8 13 29 34 38 40 39 43 38 39 43 44 40 39 38
28 18 20 11 10 9 11 3 5 15 17 16 14 14 13 10 12 16 19 21 20 18 14 14 13 13 18 18 13 9 4 4 20 32 26 29 33 39 41 45 47 48 43 40
30 24 20 11 11 13 8 11 5 11 14 13 12 10 11 13 15 18 21 20 17 15 14 13 13 13 15 20 20 17 14 12 9 10 12 17 22 24 38 43 45 43 42 42
19 29 21 17 11 11 10 9 7 10 9 8 10 12 14 15 17 18 17 16 15 15 15 14 14 12 13 15 19 24 20 17 15 15 15 16 21 24 25 26 31 41 40 38
14 15 13 16 17 14 13 10 10 10 11 10 11 15 14 13 12 13 14 16 16 15 15 14 14 13 12 14 15 16 17 15 11 9 9 8 9 11 9 17 19 24 25 28
18 17 16 13 19 18 17 16 14 12 12 13 12 13 14 14 14 15 17 19 20 17 13 13 14 14 12 12 15 15 14 15 15 10 6 11 12 12 12 12 11 8 8 7
37 19 23 25 19 21 21 17 15 15 16 16 15 17 18 20 19 20 22 21 22 20 17 15 15 13 12 12 12 14 15 15 22 15 13 7 4 5 4 8 8 9 15 16
21 21 19 25 21 24 21 20 20 19 19 18 18 22 25 26 26 26 24 23 24 23 23 23 15 13 12 13 10 11 14 15 24 17 10 13 5 8 6 8 7 8 11 12
22 18 18 21 22 26 24 22 21 20 19 20 22 24 25 25 24 24 24 25 26 29 29 22 17 14 13 14 10 8 10 12 16 24 8 16 11 13 9 13 11 10 9 9
24 24 18 20 23 21 20 20 19 20 21 21 21 19 18 19 19 20 22 25 25 23 17 15 17 13 13 14 13 13 8 11 13 15 19 17 19 16 14 12 10 10 11 10
22 22 24 22 21 22 19 16 16 14 12 15 16 17 18 19 21 22 18 16 15 12 14 10 13 13 12 12 11 12 14 14 14 15 16 14 16 14 12 13 11 12 14 12
18 23 20 18 19 17 15 13 12 11 11 13 16 15 17 18 17 12 13 11 9 4 8 9 10 10 11 12 12 11 11 11 12 14 17 15 14 15 13 15 15 15 14 14
23 24 19 18 15 15 16 16 15 14 14 14 13 15 16 14 10 10 9 8 8 10 10 8 8 8 9 9 9 10 11 11 11 11 11 13 11 12 12 12 12 12 12 12
29 32 24 21 19 19 18 18 17 17 16 16 15 14 13 11 9 9 10 10 10 10 11 14 13 12 11 9 9 9 10 10 11 11 11 11 10 11 11 12 13 13 14 14
27 28 31 30 26 21 18 16 18 18 17 18 16 12 11 11 11 13 13 14 15 15 14 14 15 14 12 10 10 10 10 11 11 12 12 12 12 13 13 13 13 12 12 11
17 28 25 26 23 21 21 18 18 19 20 20 14 12 12 12 12 14 14 13 10 11 14 14 15 14 14 13 12 12 11 12 12 12 12 11 10 9 10 11 12 13 13 13
14 18 23 24 23 22 21 19 18 20 21 17 15 17 18 13 12 13 13 13 11 7 11 15 15 14 13 13 13 13 13 14 14 13 12 11 10 9 9 9 10 10 10 10
7 10 13 16 20 21 19 21 22 21 18 15 15 15 17 16 14 13 13 11 10 7 9 14 15 15 14 14 14 15 15 15 15 15 14 12 10 10 11 11 10 11 10 10
8 11 12 12 13 16 17 18 17 14 12 11 13 15 17 16 15 13 12 9 8 8 10 12 13 13 13 13 14 15 16 16 17 18 18 18 15 14 14 14 15 14 12 11
6 7 9 9 8 10 13 13 13 11 8 7 10 12 13 13 13 12 10 9 9 9 10 12 13 14 14 14 15 16 17 18 19 19 20 20 20 21 20 20 19 17 16 15
8 9 12 11 12 14 16 16 14 11 8 7 6 6 7 9 9 9 9 8 9 10 11 13 14 13 13 14 15 16 18 19 19 19 18 18 17 19 21 23 24 22 21 19
9 16 15 17 17 15 16 17 13 10 11 11 10 8 7 7 8 8 8 8 8 8 9 11 12 12 13 14 15 17 18 20 22 20 19 19 20 19 19 21 24 25 24 23